TimeCDT,TemperatureF,Dew PointF,Humidity,Sea Level PressureIn,VisibilityMPH,Wind Direction,Wind SpeedMPH,Gust SpeedMPH,PrecipitationIn,Events,Conditions,WindDirDegrees,DateUTC
12:52 AM,50.0,46.9,89,30.09,10.0,North,3.5,-,N/A,,Clear,360,2013-06-18 05:52:00
1:52 AM,50.0,48.0,93,30.09,10.0,Calm,Calm,-,N/A,,Clear,0,2013-06-18 06:52:00
2:52 AM,50.0,46.9,89,30.10,10.0,Calm,Calm,-,N/A,,Clear,0,2013-06-18 07:52:00
3:52 AM,46.9,45.0,93,30.10,10.0,Calm,Calm,-,N/A,,Clear,0,2013-06-18 08:52:00
4:52 AM,46.0,45.0,96,30.11,6.0,Calm,Calm,-,N/A,,Clear,0,2013-06-18 09:52:00
5:52 AM,46.0,44.1,93,30.10,8.0,Calm,Calm,-,N/A,,Clear,0,2013-06-18 10:52:00
6:20 AM,46.4,44.6,93,30.09,1.2,Calm,Calm,-,N/A,,Clear,0,2013-06-18 11:20:00
6:27 AM,46.4,46.4,100,30.09,0.8,Calm,Calm,-,N/A,,Clear,0,2013-06-18 11:27:00
6:33 AM,48.2,46.4,93,30.09,2.5,Calm,Calm,-,N/A,,Clear,0,2013-06-18 11:33:00
6:38 AM,48.2,46.4,93,30.09,6.0,Calm,Calm,-,N/A,,Clear,0,2013-06-18 11:38:00
6:52 AM,53.1,50.0,89,30.09,6.0,Calm,Calm,-,N/A,,Clear,0,2013-06-18 11:52:00
7:52 AM,57.9,52.0,81,30.07,9.0,Calm,Calm,-,N/A,,Clear,0,2013-06-18 12:52:00
8:52 AM,60.1,53.1,78,30.06,10.0,SSE,5.8,-,N/A,,Clear,150,2013-06-18 13:52:00
9:52 AM,64.0,54.0,70,30.06,10.0,SE,6.9,-,N/A,,Clear,140,2013-06-18 14:52:00
10:52 AM,66.9,54.0,63,30.05,10.0,SSE,5.8,-,N/A,,Clear,150,2013-06-18 15:52:00
11:52 AM,71.1,54.0,55,30.02,10.0,ESE,8.1,-,N/A,,Clear,110,2013-06-18 16:52:00
12:52 PM,73.0,53.1,49,30.01,10.0,ESE,10.4,-,N/A,,Clear,110,2013-06-18 17:52:00
1:52 PM,75.0,53.1,46,29.99,10.0,SSE,8.1,-,N/A,,Clear,150,2013-06-18 18:52:00
2:52 PM,75.9,52.0,43,29.97,10.0,SE,11.5,-,N/A,,Clear,140,2013-06-18 19:52:00
3:52 PM,78.1,52.0,40,29.95,10.0,SE,10.4,-,N/A,,Clear,130,2013-06-18 20:52:00
4:52 PM,78.1,55.0,45,29.93,10.0,SSE,8.1,-,N/A,,Clear,150,2013-06-18 21:52:00
5:52 PM,78.1,55.0,45,29.92,10.0,SE,10.4,-,N/A,,Clear,140,2013-06-18 22:52:00
6:52 PM,77.0,55.0,47,29.89,10.0,ESE,8.1,-,N/A,,Clear,120,2013-06-18 23:52:00
7:52 PM,75.9,57.0,52,29.88,10.0,ESE,10.4,-,N/A,,Clear,110,2013-06-19 00:52:00
8:52 PM,73.9,57.9,57,29.88,10.0,ESE,6.9,-,N/A,,Clear,120,2013-06-19 01:52:00
9:52 PM,69.1,57.9,68,29.86,10.0,East,9.2,-,N/A,,Clear,100,2013-06-19 02:52:00
10:52 PM,68.0,57.9,70,29.87,10.0,ESE,9.2,-,N/A,,Clear,110,2013-06-19 03:52:00
11:52 PM,66.9,57.0,70,29.85,10.0,SE,6.9,-,N/A,,Clear,140,2013-06-19 04:52:00